Location: Newark
(39.6867°N, 100.6772°W)
Time: 10:54:30
(UTC+00:00)

Vanguard 1 - Pass Details

Date: 17 October 2019
Orbit: 652 x 3831 km, 34.2° (Epoch: 11 November)

Event Time Altitude Azimuth Distance (km) Brightness Sun altitude
Rises 06:30:03 0° 277° (W) 5,755 14.0 -59.5°
Enters shadow 06:32:47 - 275° (W) 5,182 13.7 -59.5°
Reaches altitude 10° 06:33:15 10° 274° (W) 5,091 - -59.5°
Maximum altitude 06:49:20 62° 199° (SSW) 3,700 - -59.1°
Exits shadow 07:09:20 16° 128° (SE) 6,398 14.0 -58.1°
Drops below altitude 10° 07:12:13 10° 126° (SE) 6,896 14.2 -57.9°
Sets 07:17:30 0° 124° (ESE) 7,806 14.6 -57.6°
